PROBA-1 1 26958U 01049B 26119.28015003 .00002997 00000+0 19677-3 0 9991 2 26958 97.9618 126.1090 0053692 289.0557 70.4859 15.07314534336257 CUTE-1 (CO-55) 1 27844U 03031E 26119.00354889 .00000324 00000+0 15933-3 0 9990 2 27844 98.6754 128.1790 0008956 335.4129 24.6622 14.24304328184678 CUBESAT XI-IV (CO-57) 1 27848U 03031J 26118.96741483 .00000271 00000+0 13831-3 0 9994 2 27848 98.6786 127.8957 0009248 354.7046 5.4033 14.23593671184375 APRIZESAT 4 1 35684U 09041D 26119.16556482 .00000938 00000+0 11825-3 0 9995 2 35684 98.1422 193.5096 0044552 119.8656 240.6996 14.83804170904097 APRIZESAT 3 1 35686U 09041F 26118.94272000 .00001687 00000+0 15063-3 0 9993 2 35686 98.1994 269.8313 0061049 228.9771 130.6162 14.96067058909012 PROBA-2 1 36037U 09059B 26118.99684229 .00000215 00000+0 60690-4 0 9991 2 36037 98.2450 303.0324 0014522 74.5447 285.7353 14.54840966874378 APRIZESAT 5 1 37792U 11044E 26119.16009606 .00000931 00000+0 12491-3 0 9997 2 37792 98.2440 50.8216 0052714 159.1980 201.1393 14.80975183791531 APRIZESAT 6 1 37793U 11044F 26119.24987120 .00000728 00000+0 11016-3 0 9999 2 37793 98.2391 28.7462 0041927 241.8267 282.1925 14.76848339789922 PROBA-V 1 39159U 13021A 26119.20077469 .00000078 00000+0 52445-4 0 9996 2 39159 98.3562 100.2339 0002958 280.2437 79.8409 14.23586312674144 APRIZESAT 7 1 39416U 13066A 26119.11285878 .00001512 00000+0 15510-3 0 9991 2 39416 97.7673 73.0533 0036387 16.4924 343.7469 14.91442922673918 APRIZESAT 8 1 39425U 13066K 26119.10632396 .00001212 00000+0 13698-3 0 9993 2 39425 97.8188 67.2742 0047554 87.4964 273.1696 14.87543512672376 BUGSAT-1 (TITA) 1 40014U 14033E 26119.30311484 .00006098 00000+0 32664-3 0 9999 2 40014 98.0412 209.0184 0027871 350.7150 9.3561 15.15091785648436 SAUDISAT 4 1 40016U 14033G 26119.01827456 .00000819 00000+0 11479-3 0 9996 2 40016 97.7513 266.8739 0043724 232.2467 127.4780 14.79469999638803 APRIZESAT 9 1 40018U 14033J 26119.20170437 .00000558 00000+0 89519-4 0 9990 2 40018 97.8984 253.6183 0066098 359.0275 1.0794 14.74158198636349 APRIZESAT 10 1 40019U 14033K 26118.94242073 .00000615 00000+0 10388-3 0 9998 2 40019 97.9574 247.0225 0080137 71.4426 289.5465 14.70837466635012 TECHDEMOSAT-1 (TDS-1) 1 40076U 14037H 26119.21541840 .00008287 00000+0 47970-3 0 9990 2 40076 98.3807 106.6112 0008241 78.5495 281.6659 15.12511986640820 TECHNOSAT 1 42829U 17042E 26119.17523661 .00003463 00000+0 24988-3 0 9998 2 42829 97.4234 278.7247 0016141 260.0109 99.9297 15.04656115479339 FLYING LAPTOP 1 42831U 17042G 26119.25333631 .00002256 00000+0 18154-3 0 9993 2 42831 97.4465 276.7459 0017919 291.8152 68.1166 15.00828587479114 HAWK-A 1 43765U 18099H 26119.11454692 .00007944 00000+0 32457-3 0 9990 2 43765 97.3961 172.0030 0037032 98.3822 262.1616 15.24001900405625 HAWK-B 1 43794U 18099AN 26119.14392758 .00006707 00000+0 29021-3 0 9998 2 43794 97.4011 171.5478 0034125 114.9328 245.5460 15.22228099405574 HAWK-C 1 43799U 18099AT 26119.13461960 .00008566 00000+0 31424-3 0 9999 2 43799 97.3936 172.6985 0042892 99.1957 261.4138 15.27328243406422 SALSAT 1 46495U 20068K 26119.27249140 .00007841 00000+0 28027-3 0 9993 2 46495 97.8854 119.3884 0011637 111.2611 248.9872 15.29062672307882 HAWK-2C 1 47502U 21006CT 26119.10959847 .00006568 00000+0 20145-3 0 9998 2 47502 97.2325 164.4093 0007422 31.2791 328.8892 15.34065402291971 HAWK-2A 1 47505U 21006CW 26119.11252975 .00006541 00000+0 20058-3 0 9994 2 47505 97.2369 165.0611 0007133 35.6306 324.5412 15.34077531291971 HAWK-2B 1 47508U 21006CZ 26119.10959525 .00007561 00000+0 23137-3 0 9995 2 47508 97.2242 163.4706 0007584 32.4644 327.7065 15.34087550291972 HAWK-3B 1 48931U 21059BE 26119.10602183 .00036021 00000+0 35793-3 0 9993 2 48931 97.6697 311.3216 0006118 143.3536 216.8142 15.65655086270166 HAWK-3C 1 48948U 21059BX 26119.10571311 .00037273 00000+0 37040-3 0 9996 2 48948 97.6830 316.9194 0006513 143.4427 216.7278 15.65643293270164 HAWK-3A 1 48957U 21059CG 26119.10557696 .00036762 00000+0 36529-3 0 9999 2 48957 97.6772 314.1643 0006191 143.4707 216.6976 15.65650809270166 HAWK-5C 1 52754U 22057Y 26118.99477615 .00018690 00000+0 33965-3 0 9997 2 52754 97.6522 275.5862 0003823 233.9537 126.1359 15.49597517218729 HAWK-5B 1 52756U 22057AA 26118.99464222 .00018831 00000+0 34212-3 0 9992 2 52756 97.6532 273.9292 0004051 229.8963 130.1933 15.49602425218720 HAWK-5A 1 52757U 22057AB 26119.18812543 .00017709 00000+0 32184-3 0 9997 2 52757 97.6528 274.9683 0004256 232.0582 128.0284 15.49604767218750 HAWK-6B 1 55324U 23011A 26119.12478887 .00005427 00000+0 23757-3 0 9994 2 55324 40.4994 278.1389 0002211 17.0081 343.0802 15.22485113180362 HAWK-6C 1 55326U 23011C 26119.12415408 .00005426 00000+0 23748-3 0 9995 2 55326 40.4980 274.9866 0002906 4.4998 355.5837 15.22488460180376 HAWK-6A 1 55327U 23011D 26118.86180794 .00005350 00000+0 23431-3 0 9998 2 55327 40.4991 278.1354 0002676 357.4765 2.6031 15.22484010180333 HAWK-7A 1 56191U 23054P 26119.22775699 .00005567 00000+0 21384-3 0 9995 2 56191 97.2768 7.8124 0002552 169.6315 190.4978 15.26836806169559 HAWK-7B 1 56193U 23054R 26119.22768984 .00005707 00000+0 21915-3 0 9992 2 56193 97.2795 6.0587 0001676 165.0622 195.0667 15.26837467169552 HAWK-7C 1 56200U 23054Y 26119.22758287 .00005574 00000+0 21407-3 0 9994 2 56200 97.2770 6.8427 0002192 159.1334 200.9995 15.26837629169553